Regional Weather Roundup
Issued by NWS Goodland, KS

Home | Current Version | Previous Version | Graphics & Text | Print | Product List | Glossary On
Versions: 1 2 3 4 5 6 7 8 9 10 11 12 13 14 15 16 17 18 19 20 21 22 23 24 25 26 27 28 29 30 31 32 33 34 35 36 37 38 39 40 41 42 43 44 45 46 47 48 49 50
606
ASUS43 KGLD 031359
RWRGLD

GOODLAND FORECAST AREA HOURLY WEATHER ROUNDUP
NATIONAL WEATHER SERVICE GOODLAND KS
800 AM MDT TUE MAY 03 2016

...OFFICIAL OBSERVATIONS...

CITY           SKY/WX    TMP DP  RH WIND       PRES   REMARKS
GOODLAND KS    MOSUNNY   49  41  74 NW10      30.08S
HILL CITY KS   SUNNY     54  42  64 VRB5      30.07R
IMPERIAL NEB   SUNNY     47  43  86 N9        30.11R
MCCOOK NEB     MOSUNNY   47  43  86 N12       30.08R
AKRON CO       SUNNY     46  35  65 N18       30.15R
BURLINGTON CO  SUNNY     50  36  58 NW16G24   30.11R
LIMON CO       SUNNY     46  33  60 NW24G30   30.17R
$$

...UNOFFICIAL OBSERVATIONS...

CITY           SKY/WX    TMP DP  RH WIND       PRES   REMARKS
COLBY KS       MOSUNNY   48  48 100 NW9       30.09R
LENORA KS        N/A     52  32  46 MISG        N/A
NORTON KS      SUNNY     54  43  66 N7        30.05S
SHARON SPRINGS   N/A     50  41  70 NW12        N/A
KIT CARSON CO    N/A     50  37  62 MISG        N/A
YUMA CO          N/A     45  38  77 N12         N/A
$$




USA.gov is the U.S. government's official web portal to all federal, state and local government web resources and services.